Home   Weather   Houston   Past weeks
Flag for USA

Past Weather in Houston, Texas, USA — Yesterday and Last 2 Weeks

Now
82 °F

Passing clouds.


Feels Like: 89 °F
Forecast: 92 / 80 °F
Wind: 8 mph from South

Location: Houston Hobby Airport

Current Time: Jul 16, 2019 at 1:50:47 am

Latest Report: Jul 16, 2019 at 12:53 am


Visibility: 10 mi

Pressure: 29.98 "Hg

Humidity: 82%

Dew Point: 76 °F

Location of HoustonLocation

Past Weather in Houston — Graph

°F

Houston Temperature Yesterday

Maximum temperature yesterday: 94 °F (at 2:53 pm)
Minimum temperature yesterday: 81 °F (at 4:53 am)
Average temperature yesterday: 85 °F

High & Low Weather Summary for the Past Weeks

 TemperatureHumidityPressure
High97 °F (Jul 11, 3:53 pm)91% (Jul 2, 8:53 pm)30.12 "Hg (Jul 2, 8:53 pm)
Low75 °F (Jul 3, 4:53 am)33% (Jul 12, 4:53 pm)29.70 "Hg (Jul 13, 4:53 pm)
Average85 °F71%29.94 "Hg
* Reported Jun 30 11:53 pm — Jul 15 11:53 pm, Houston. Weather by CustomWeather, © 2019

Note: Actual official high and low records may vary slightly from our data, if they occured in-between our weather recording intervals... More about our weather records

Advertising

Houston Weather History for the Previous 24 Hours

Scroll right to see more
 ConditionsComfort  
Time TempWeatherWind HumidityBarometerVisibility
11:53 pm
Mon, Jul 15
82 °FPartly cloudy.8 mph82%29.96 "Hg10 mi
10:53 pm83 °FPassing clouds.12 mph79%29.96 "Hg10 mi
9:53 pm84 °FPassing clouds.12 mph77%29.95 "Hg10 mi
8:53 pm85 °FPassing clouds.14 mph75%29.93 "Hg10 mi
7:53 pm87 °FBroken clouds.16 mph67%29.91 "Hg10 mi
6:53 pm88 °FPartly sunny.15 mph65%29.91 "Hg10 mi
6:26 pm89 °FBroken clouds.14 mph61%29.90 "Hg10 mi
5:53 pm90 °FThunderstorms. Broken clouds.18 mph57%29.91 "Hg10 mi
4:53 pm91 °FBroken clouds.20 mph60%29.91 "Hg10 mi
3:53 pm93 °FBroken clouds.9 mph58%29.92 "Hg10 mi
2:53 pm94 °FBroken clouds.14 mph54%29.94 "Hg10 mi
1:53 pm89 °FPartly sunny.14 mph57%29.94 "Hg10 mi
12:53 pm84 °FPartly sunny.14 mph67%29.96 "Hg10 mi
11:53 am89 °FBroken clouds.13 mph63%29.96 "Hg10 mi
10:53 am88 °FBroken clouds.14 mph70%29.97 "Hg8 mi
9:53 am86 °FMore clouds than sun.8 mph77%29.97 "Hg6 mi
9:39 am85 °FCloudy.7 mph80%29.96 "Hg6 mi
9:24 am84 °FMostly cloudy.7 mph83%29.96 "Hg6 mi
8:53 am84 °FMostly cloudy.6 mph85%29.96 "Hg5 mi
7:53 am82 °FFog.5 mph88%29.93 "Hg5 mi
7:38 am82 °FFog.6 mph88%29.92 "Hg5 mi
6:53 am82 °FFog.6 mph88%29.92 "Hg5 mi
5:53 am82 °FFog.6 mph88%29.92 "Hg6 mi
5:35 am82 °FFog.5 mph88%29.91 "Hg6 mi
4:53 am81 °FFog.7 mph91%29.91 "Hg6 mi
3:53 am82 °FFog.7 mph88%29.90 "Hg6 mi
3:15 am82 °FFog.7 mph88%29.89 "Hg6 mi
1:53 am82 °FFog.6 mph88%29.90 "Hg6 mi
1:11 am82 °FFog.9 mph88%29.89 "Hg6 mi
Weather by CustomWeather, © 2019

See weather overview

LIVE PARTIAL LUNAR ECLIPSE – Watch the eclipse as it happens